Weather in Zhargalanta

Russia / Republic of Buryatia     51°24′37″N   106°39′56″E
temp.,
°C
wind,
m/s
gust,
m/s
humid.,
%
clouds,
%
prec.,
mm/h
press.,
hPa
HPBL,
m
19 april, mon
mon1923:00−2nne1141100 0.0 102215
02:00−4nne11415 0.0 102110
05:00−5n114669 0.0 102110
08:00−2ese11345 0.0 1021247
11:00+5sse24245 0.0 1017791
14:00+10ssw46245 0.0 10121152
17:00+12ssw472685 0.0 1007925
20:00+8wnw014051 0.0 100510
20 april, tue
tue2023:00+5nnw2148100 0.0 100410
02:00+4wnw115010 0.0 100410
05:000nw46699 0.0 1010179
08:00+1nw586167 0.0 1012750
11:00+5nw33421 0.0 1010917
14:00+10nw443438 0.0 10071260
17:00+7nnw56415 0.0 1007803
20:00+2n4644100 0.0 1009600
21 april, wed
wed2123:000nw35608 0.1 1012183
02:00−3nnw337760 0.1 101398
05:00−4nw3385100 0.0 101451
08:00−1nnw4755100 0.0 1015845
11:00+1n5646100 0.0 10161127
14:00+2nnw6644100 0.0 10171239
17:000n6851100 0.0 10191082
20:00−1nnw4858100 0.1 10221009
22 april, thu
thu2223:00−4nw337698 0.0 102448
02:00−2nw2463100 0.0 1025231
05:00−4nw227486 0.0 102728
08:00−2nnw235538 0.0 1028424
11:00+3nne3331100 0.0 10261287
14:00+5nne3330100 0.0 10251518
17:00+4nnw4443100 0.0 10261052
20:000nw3460100 0.0 1029326
23 april, fri
fri2323:00−1nw2469100 0.1 1031250
02:00−3nw3493100 1.4 1033258
05:00−3nw3588100 0.9 1035288
08:00−2nnw3568100 1.0 1036458
11:00+2nnw3555100 0.0 1037975
14:00+4n4552100 0.0 10371388
17:00+4n4553100 0.0 10371249
20:00+1nnw3374100 0.0 104081